Location: Newark
(45.2500°N, 7.5833°E)
Time: 02:02:39
(UTC+00:00)

A-11 Canister half - Pass Details

Date: 01 February 2020
Orbit: 1524 x 1684 km, 47.3° (Epoch: 25 February)

Event Time Altitude Azimuth Distance (km) Brightness Sun altitude
Rises 17:50:44 0° 270° (W) 4,676 13.3 -13.3°
Reaches altitude 10° 17:53:45 10° 272° (W) 3,701 12.4 -13.9°
Maximum altitude 18:03:08 79° 359° (N) 1,583 9.0 -15.5°
Enters shadow 18:10:00 22° 85° (E) 2,940 9.8 -16.7°
Drops below altitude 10° 18:12:48 10° 87° (E) 3,802 - -17.2°
Sets 18:15:57 0° 89° (E) 4,809 - -17.7°
